Overview Statistics Trail Chart Weather Telemetry Raw packets
 

This is the latest recevied weather packets stored in our database for station/object K9MWD. If no packets are shown the sender has not sent any weather packets the latest 10 day(s).

<< 27 28 29 30 31 32 33 >>
Time Temp. Humidity Pressure Rain* Wind** Luminosity Snow
1788448779 27.78° C 80% 1014.2 hPa 0 mm - 72 W/m² -
1788448479 27.78° C 80% 1014.3 hPa 0 mm - 44 W/m² -
1788448174 27.78° C 80% 1014.2 hPa 0 mm - 58 W/m² -
1788447874 28.33° C 80% 1014.2 hPa 0 mm - 95 W/m² -
1788447574 28.33° C 79% 1014.3 hPa 0 mm - 117 W/m² -
1788447269 28.33° C 79% 1014.2 hPa 0 mm - 132 W/m² -
1788446964 28.33° C 79% 1014.1 hPa 0 mm - 104 W/m² -
1788446663 28.33° C 79% 1014.1 hPa 0 mm - 147 W/m² -
1788446359 28.33° C 79% 1014.1 hPa 0 mm - 226 W/m² -
1788446056 27.78° C 80% 1014.2 hPa 0 mm - 247 W/m² -
1788445751 27.78° C 81% 1014.1 hPa 0 mm - 196 W/m² -
1788445447 27.78° C 81% 1014 hPa 0 mm - 137 W/m² -
1788445143 27.78° C 81% 1014.1 hPa 0 mm - 142 W/m² -
1788444838 27.78° C 82% 1013.9 hPa 0 mm - 189 W/m² -
1788444534 27.22° C 82% 1013.9 hPa 0 mm - 121 W/m² -
1788444229 27.22° C 82% 1013.9 hPa 0 mm - 96 W/m² -
1788443924 27.22° C 82% 1013.9 hPa 0 mm - 133 W/m² -
1788443620 26.67° C 83% 1013.9 hPa 0 mm - 209 W/m² -
1788443318 26.67° C 84% 1014.1 hPa 0 mm - 143 W/m² -
1788443014 26.11° C 84% 1014 hPa 0 mm - 121 W/m² -
1788442711 26.11° C 84% 1014 hPa 0 mm - 48 W/m² -
1788442408 26.11° C 84% 1014.2 hPa 0 mm - 51 W/m² -
1788442108 26.11° C 84% 1013.9 hPa 0 mm - 49 W/m² -
1788441804 26.11° C 84% 1014 hPa 0 mm - 73 W/m² -
1788441498 26.11° C 84% 1013.8 hPa 0 mm - 99 W/m² -

* Rain latest hour (hover to see other rain measurements)
** Current wind speed in m/s (hover to see current wind gust speed)